Location: Chakepay
(13.3931°S, 72.1925°W)
Time: 11:01:24
(UTC+00:00)

Cosmos 1656 Rocket - Pass Details

Date: 15 November 2019
Orbit: 797 x 845 km, 71.1° (Epoch: 08 December)

Event Time Altitude Azimuth Distance (km) Brightness Sun altitude
Exits shadow 08:23:22 44° 234° (SW) 1,120 4.1 -25.0°
Drops below altitude 10° 08:28:07 10° 180° (S) 2,437 6.4 -24.0°
Sets 08:30:40 0° 173° (S) 3,382 7.3 -23.4°
